RH
14 18 25 35 44 52 56 64 81 91 91 88 88 88 86 85 82 81 80 80 76 74 80 80 72 63 59 59 52 43 36 31 40 51 45 41 42 42 45 51 50 42 38 37 41 52 65 76 85 91 83 79 82 82 82 78 72 66 62 60 58 57 55 53 48 42 36 30 26 21 19 17 16 16 15 14 12 10 8 7 6 5 5 5 5 5 5 5 6 6 6 6 5 6 5 5 5
27 34 41 50 57 64 72 81 91 96 94 91 90 92 92 86 84 85 81 82 78 77 82 83 79 71 65 61 56 41 29 35 41 41 43 44 43 49 52 51 52 45 42 49 61 76 87 95 94 93 90 85 82 78 73 67 64 63 62 61 58 54 48 42 34 28 23 20 18 17 16 15 14 12 10 8 6 5 5 5 5 6 6 6 6 6 6 6 6 6 5 5 5 5 5 5 5
42 45 47 57 69 74 80 89 96 99 97 93 89 91 91 84 90 92 87 88 81 80 85 83 80 72 62 52 53 47 36 44 47 45 46 45 46 59 64 58 60 56 61 76 84 89 92 96 96 91 86 79 75 70 67 65 63 63 60 55 49 41 34 27 23 20 18 17 15 14 12 10 8 6 5 5 5 6 6 6 6 6 6 6 6 5 5 5 5 5 5 5 5 5 5 5 4
43 44 50 60 73 80 84 94 96 95 94 96 94 87 84 87 94 92 91 92 84 85 88 87 83 74 64 59 61 53 48 56 58 61 52 44 56 73 71 61 69 71 74 90 94 91 90 91 90 84 78 72 68 66 65 63 60 57 51 42 34 27 23 20 19 17 15 12 10 8 6 5 5 6 6 6 6 7 6 7 6 6 6 5 5 5 5 5 5 5 5 5 5 5 4 5 5
41 48 59 64 72 84 91 95 92 93 95 96 93 81 78 89 94 90 92 89 86 88 89 93 90 82 71 68 71 60 59 66 69 68 50 49 77 87 71 58 68 80 81 90 93 88 87 83 77 73 70 66 63 64 62 58 53 45 37 29 24 22 20 18 15 12 9 7 6 6 6 7 7 7 7 7 7 6 7 6 6 6 5 5 5 5 5 5 5 5 5 5 5 5 5 5 5
47 60 66 69 77 90 97 96 90 93 95 94 89 75 74 87 89 87 91 89 89 88 89 95 91 89 79 70 71 68 73 77 76 68 47 50 78 84 72 69 75 87 90 89 89 82 77 72 67 64 63 65 64 63 55 47 39 31 26 22 20 17 14 11 8 7 6 6 7 7 7 7 7 7 7 6 6 6 6 6 6 6 5 5 5 5 5 5 5 5 5 5 5 5 6 6 6
58 66 67 81 90 94 99 96 92 93 91 95 90 73 71 82 84 83 88 88 89 88 91 95 92 94 87 81 82 84 86 79 75 71 65 67 79 82 79 88 88 87 89 82 77 70 67 65 64 64 65 65 59 51 40 32 27 23 20 16 13 8 7 6 6 6 7 7 7 7 7 7 7 7 6 6 6 6 6 6 6 5 5 5 5 5 5 5 5 5 6 6 6 6 6 6 6
62 64 72 92 99 98 96 92 94 94 90 92 81 69 73 80 85 85 87 89 89 86 88 91 95 99 93 91 91 94 92 77 77 81 87 93 92 90 85 90 88 79 76 70 67 64 64 64 64 64 59 51 42 34 28 24 20 16 12 8 7 5 7 7 7 7 7 8 7 7 7 7 6 6 6 6 6 6 5 5 5 5 5 5 6 6 6 6 6 6 6 6 7 7 6 5 4
58 64 80 92 100 100 93 92 94 89 91 92 74 72 84 82 84 87 86 87 88 85 87 92 93 95 90 88 87 92 95 85 89 93 96 96 87 82 74 75 76 71 69 68 68 65 65 63 61 54 43 36 29 24 21 16 11 8 6 6 7 7 8 7 8 8 7 8 7 7 6 6 6 6 6 5 5 5 5 5 6 6 6 6 6 6 6 6 6 6 6 6 6 6 5 3 2
56 67 85 94 101 98 90 96 97 88 92 93 75 75 84 86 87 84 81 81 84 83 86 93 87 85 84 84 84 86 92 91 91 90 88 84 75 72 70 71 75 75 73 71 70 65 61 54 47 38 30 26 21 16 11 8 6 6 7 7 8 8 8 8 8 8 7 7 7 6 6 6 6 6 5 5 5 5 6 6 6 6 6 6 6 7 7 7 7 6 6 6 5 5 3 2 2
62 80 91 98 101 94 89 93 97 92 92 86 72 73 80 91 93 83 82 80 82 85 84 87 83 84 85 86 87 85 89 94 93 87 82 78 74 74 74 74 73 72 68 64 58 50 42 36 32 27 21 17 12 7 6 7 7 8 8 8 8 8 8 8 7 7 7 6 6 6 6 6 5 5 5 5 6 6 6 6 6 6 7 7 7 8 8 8 8 7 6 5 4 3 2 2 2
71 91 95 98 99 93 92 93 92 86 86 78 66 70 79 89 88 82 84 77 77 86 88 84 83 87 89 90 90 88 91 95 94 86 78 74 70 68 65 62 60 57 52 44 36 29 26 25 22 17 11 8 7 7 8 8 8 9 9 9 8 8 7 7 7 6 6 6 6 6 5 5 5 5 5 6 6 6 6 6 7 7 7 7 7 8 8 9 8 9 8 6 4 3 2 2 2
79 97 99 97 96 92 94 93 83 78 86 80 65 68 77 85 84 81 81 77 75 80 86 86 88 91 91 90 86 87 88 84 83 76 68 61 56 57 53 47 44 38 33 27 23 23 20 15 11 8 6 7 8 8 9 8 9 9 9 9 8 7 7 6 6 6 6 6 6 5 6 5 5 6 6 6 6 6 6 7 7 7 8 8 8 8 8 8 8 8 8 7 6 4 3 3 3
73 92 100 90 87 91 95 88 78 76 79 71 64 70 74 76 77 77 76 76 76 74 80 84 89 91 90 91 87 87 84 74 70 66 63 57 53 50 41 33 29 26 24 22 18 15 9 7 7 7 8 8 9 9 9 10 9 9 8 8 7 7 7 6 6 6 6 6 6 6 6 6 6 6 6 6 6 6 7 7 8 8 8 7 7 7 7 7 7 7 7 7 6 5 4 4 4
62 83 97 88 81 87 92 85 85 79 65 56 57 68 72 69 68 75 75 71 74 74 76 78 80 83 84 87 85 83 78 67 58 55 56 54 48 37 29 25 24 23 19 14 9 6 6 7 8 8 9 9 9 10 10 10 8 8 8 7 7 7 6 7 7 6 7 6 6 6 6 7 6 7 7 7 7 7 7 8 7 7 7 6 6 6 6 6 5 5 6 6 6 6 6 6 6
66 76 86 86 81 81 80 75 88 78 54 49 51 61 69 67 62 64 63 59 64 66 68 69 73 78 78 77 73 67 60 55 51 49 48 41 35 28 25 24 19 15 9 6 6 6 8 8 8 9 10 10 10 10 9 9 8 8 7 7 7 7 7 7 7 7 7 7 7 7 7 7 7 7 7 7 7 7 7 6 7 6 6 5 5 5 5 6 7 8 9 9 9 9 9 10 9
69 76 80 82 80 75 68 66 81 72 50 47 47 55 61 62 63 56 50 49 52 56 61 63 67 73 72 68 61 48 40 40 40 40 38 32 28 25 20 14 8 6 5 7 7 7 8 8 10 10 10 11 11 10 9 8 8 8 8 8 8 8 8 8 8 9 8 8 8 8 8 7 7 7 7 7 6 6 6 6 5 5 5 5 7 8 9 10 11 11 11 11 11 11 10 10 10
68 82 85 78 73 73 71 67 73 62 50 48 42 53 62 64 67 63 57 54 52 53 59 62 62 64 62 60 52 39 34 36 36 34 31 25 20 14 8 6 5 6 7 7 8 8 9 9 10 11 11 11 10 9 9 9 9 9 9 9 9 9 9 9 10 10 9 9 8 8 8 8 7 7 6 6 6 6 5 5 5 6 8 10 11 12 12 12 12 11 11 11 10 10 9 9 9
63 77 85 70 61 71 72 63 64 56 49 48 43 58 72 68 67 72 71 63 56 54 59 64 61 56 49 50 47 37 33 32 31 26 19 14 8 6 5 6 6 7 7 8 8 9 9 10 11 11 11 10 10 10 10 10 10 10 10 9 9 9 10 11 11 10 10 8 8 8 8 8 7 7 7 6 6 5 5 6 8 10 11 12 12 12 12 12 11 11 11 10 10 9 9 9 8
67 72 75 62 56 65 64 57 63 60 50 51 50 60 70 66 64 70 73 63 53 50 53 57 56 49 40 41 41 33 27 22 19 13 8 6 5 6 6 6 7 7 8 8 9 10 10 11 11 11 11 11 11 11 11 11 11 10 10 10 10 11 11 11 11 11 10 9 8 8 9 9 8 7 6 6 5 6 8 10 12 13 13 13 13 13 12 12 12 11 11 11 10 10 9 8 8
65 64 59 56 57 54 54 55 59 57 50 51 53 53 56 62 65 61 62 56 44 39 40 42 44 42 36 33 31 25 20 14 9 6 5 5 6 6 7 7 8 8 8 9 9 10 10 10 11 11 10 11 11 11 12 11 11 11 10 11 11 11 11 11 11 11 10 9 8 9 9 9 8 7 6 6 7 10 13 14 13 13 13 13 13 13 13 12 12 12 11 11 10 10 9 8 8
60 51 47 49 50 43 46 53 56 53 48 54 55 49 48 57 65 55 50 48 40 35 33 35 37 34 30 26 21 17 12 7 5 5 6 6 7 7 7 7 8 8 9 9 10 10 11 11 10 11 11 12 12 12 11 11 11 11 11 11 11 11 12 12 12 12 10 9 9 9 10 9 8 7 6 9 13 15 14 14 14 14 14 14 14 13 13 13 13 13 12 11 11 9 9 8 7
58 40 39 40 42 44 46 51 53 51 49 55 55 52 52 51 55 49 42 41 37 35 34 32 31 26 22 18 13 9 6 5 5 6 6 6 7 7 7 8 8 9 9 9 10 10 11 11 10 11 12 12 12 12 12 12 11 11 12 11 12 12 12 13 13 12 11 9 9 10 10 9 7 7 9 14 16 16 14 14 14 14 14 14 14 14 14 14 14 13 12 11 10 9 8 7 5
49 36 36 35 39 43 43 44 44 45 46 52 52 50 50 45 44 43 40 38 35 34 31 27 23 19 14 10 7 5 5 6 6 6 7 7 7 8 8 8 9 9 9 10 10 11 11 10 11 11 12 12 12 13 12 12 12 12 12 12 12 12 12 13 13 13 11 9 10 11 10 8 7 10 14 17 17 16 15 15 15 15 15 15 15 16 15 15 14 13 12 11 10 9 7 5 4
40 37 36 35 41 42 40 45 45 46 46 46 45 40 39 41 41 38 36 34 31 28 24 21 18 13 8 5 5 5 6 6 7 7 7 7 7 8 9 8 9 9 9 10 10 11 11 10 11 11 12 12 12 13 12 12 13 12 12 13 13 13 13 13 14 14 11 10 12 11 9 8 10 15 18 18 17 16 16 16 16 16 16 16 16 16 16 15 14 13 12 11 9 8 6 4 3
39 40 41 39 42 42 41 45 45 46 46 42 43 42 40 41 39 33 31 28 24 22 19 16 12 7 5 5 6 6 7 7 7 7 7 8 8 8 9 9 9 10 10 10 10 10 10 11 10 11 12 12 13 13 13 12 13 13 13 14 13 13 14 14 15 14 11 11 13 11 9 9 14 18 19 17 17 17 17 17 17 17 17 17 17 17 17 16 14 13 11 10 9 7 5 3 4
44 43 45 47 44 44 45 47 45 43 41 40 42 43 43 43 37 29 25 21 19 17 14 10 6 5 6 5 6 6 6 7 7 8 8 8 9 9 9 10 9 10 10 9 10 10 10 10 10 11 13 13 13 13 13 13 13 13 13 14 13 13 14 14 15 13 11 12 12 10 9 13 18 19 18 18 18 18 18 18 18 18 18 18 18 18 17 16 14 13 11 10 8 6 4 3 6
45 44 44 47 42 41 47 47 45 42 39 39 39 38 42 44 36 24 20 19 16 12 8 5 4 5 6 6 6 7 6 7 8 8 9 9 9 10 9 10 10 9 10 10 9 10 9 10 11 11 12 12 13 13 13 13 13 14 14 14 13 14 14 14 15 13 12 14 13 10 11 17 20 19 18 19 19 19 19 19 19 19 19 19 18 19 18 16 14 13 11 9 7 5 3 4 9
42 45 44 42 38 39 45 44 44 43 43 46 42 39 41 38 29 21 18 15 10 7 6 5 6 6 6 7 6 6 7 7 8 8 8 10 9 10 10 9 10 9 9 10 9 10 10 10 11 11 11 12 12 12 12 12 13 14 14 14 14 14 14 15 16 13 13 15 12 10 15 19 19 19 20 20 20 20 20 19 20 20 19 19 19 19 18 16 14 12 11 9 6 4 3 6 13
45 45 43 43 39 36 41 43 44 45 45 46 42 38 34 28 24 21 16 10 8 6 6 7 8 8 7 6 7 7 8 8 8 9 8 10 10 9 9 9 9 9 9 9 9 10 10 10 10 10 11 11 12 12 12 12 13 14 14 15 14 14 14 15 16 14 14 16 12 12 18 20 19 20 20 20 21 21 21 20 21 20 19 20 20 19 18 16 14 12 11 8 5 3 4 8 16
49 49 48 45 35 31 37 41 45 44 42 42 38 31 25 24 22 19 16 10 10 10 8 10 9 10 10 7 8 7 8 9 8 9 9 8 9 8 8 9 9 9 9 9 10 10 10 10 10 10 10 11 11 11 12 12 13 14 14 15 15 15 15 16 16 14 15 16 12 14 20 20 19 20 19 21 22 21 21 21 20 20 20 20 20 20 19 16 14 13 11 7 5 2 5 14 24
57 55 50 43 30 26 27 30 38 40 39 40 36 27 21 21 15 13 16 10 12 15 10 10 9 9 11 9 10 10 8 9 8 9 9 7 7 7 7 8 8 9 9 9 10 10 10 10 10 10 11 11 11 11 12 13 13 14 15 15 15 16 15 17 17 14 16 16 12 16 21 20 19 19 19 21 22 22 22 20 20 19 20 20 21 21 19 16 14 13 10 6 4 2 6 22 38
64 60 56 51 41 34 27 24 32 34 36 39 38 31 22 16 12 13 16 13 16 19 13 12 10 7 11 11 11 12 9 8 9 7 6 6 6 6 7 7 8 8 9 9 10 10 10 10 10 11 11 11 12 12 13 13 14 14 15 15 15 16 16 17 18 14 16 16 12 18 22 20 20 19 19 20 21 23 21 20 19 19 20 21 21 21 19 16 13 12 10 5 4 2 5 22 41
67 65 59 54 46 39 31 24 26 33 39 41 39 33 21 14 14 14 14 18 22 21 19 17 14 13 16 18 15 13 12 9 7 6 5 6 6 6 7 8 8 9 9 9 10 10 11 11 11 12 11 12 12 12 13 13 14 14 15 16 16 17 16 17 18 14 17 16 12 18 22 21 21 19 19 20 21 23 21 19 19 20 20 21 22 22 19 16 13 12 9 5 4 2 4 17 35
73 63 52 49 41 32 33 28 22 32 43 46 43 28 15 14 16 17 16 20 22 21 21 18 18 20 17 17 15 12 13 10 6 5 6 6 6 7 7 8 8 9 9 9 10 10 10 11 11 12 12 12 12 12 13 13 14 15 15 16 16 16 16 17 18 15 17 16 13 19 23 21 21 19 19 19 20 23 21 19 19 20 20 21 22 22 20 16 13 12 9 5 4 2 3 14 33
77 68 56 55 43 26 30 31 24 36 44 44 44 25 12 15 15 19 19 14 18 22 20 19 23 26 22 20 18 13 13 12 8 6 7 7 7 7 7 8 8 8 9 9 10 10 10 11 11 11 12 12 13 13 13 14 14 15 15 16 16 17 16 17 17 15 18 16 13 19 23 22 21 19 18 19 20 23 22 19 19 20 20 22 22 22 21 16 13 13 9 6 4 3 2 10 31
75 71 60 55 47 32 28 31 33 43 43 33 29 17 11 15 13 17 19 12 14 17 18 22 27 31 30 26 20 14 11 11 9 6 7 7 7 8 7 7 8 8 9 9 9 10 11 11 12 12 13 13 14 14 14 15 15 15 16 16 16 17 16 18 18 15 18 16 13 19 23 22 20 18 18 19 21 23 22 20 19 19 20 22 23 22 21 17 14 13 10 6 4 4 2 5 23
68 70 63 52 47 38 25 29 38 41 41 37 31 22 14 13 14 17 18 15 13 14 18 25 28 29 30 28 19 13 10 9 9 8 8 9 9 9 9 8 9 9 9 10 11 11 12 13 14 14 15 16 16 16 17 17 18 17 18 17 17 17 16 18 18 16 19 17 13 19 23 21 19 18 19 19 21 24 22 20 20 19 20 22 23 23 23 19 14 13 11 8 5 3 3 3 14
67 65 56 46 46 43 25 28 44 40 37 42 38 29 18 11 13 16 15 15 15 14 15 21 25 25 27 30 24 14 12 11 11 10 8 9 10 10 10 10 11 12 12 13 13 14 15 15 16 17 17 18 18 19 20 19 21 20 20 20 18 17 16 18 18 16 19 17 14 20 22 21 19 17 18 17 21 25 23 21 20 19 20 21 23 24 24 20 14 13 12 8 6 4 3 3 5
68 62 49 44 54 55 35 28 37 35 38 41 30 22 16 10 11 13 13 14 13 13 13 16 19 19 21 26 22 15 15 15 12 12 10 10 11 11 12 12 13 15 15 16 17 17 17 17 17 18 18 19 19 20 21 22 23 23 22 21 19 18 17 19 18 17 20 17 14 20 22 20 19 17 16 16 21 26 23 21 20 20 20 20 22 23 23 22 15 12 13 9 7 4 3 4 2
58 56 51 46 51 54 49 43 36 35 46 40 27 26 23 16 14 12 11 13 13 12 13 16 17 16 18 21 19 15 16 17 14 12 12 11 12 13 15 17 19 21 22 23 23 22 21 20 18 18 18 19 20 21 21 22 23 24 25 23 21 18 17 19 18 17 21 17 14 20 22 20 18 16 15 15 21 26 24 22 21 20 21 20 21 22 23 25 18 12 13 10 8 5 4 4 2
53 50 57 58 59 61 64 64 55 55 59 51 48 52 42 36 37 22 10 14 15 12 14 16 18 20 20 19 21 21 18 17 16 14 15 18 21 25 28 30 32 33 34 33 33 32 29 26 22 20 19 19 20 21 21 22 22 24 25 25 22 19 17 19 18 18 21 17 14 19 21 20 18 15 15 15 20 27 25 22 22 21 21 21 21 21 22 25 22 13 12 12 9 7 5 4 3
61 55 59 63 67 75 78 74 67 64 64 68 74 70 58 57 53 32 18 22 19 16 21 22 21 25 27 27 25 24 22 20 20 23 28 32 35 36 35 36 36 37 38 38 38 39 36 33 28 24 21 20 20 22 21 21 21 23 25 25 23 19 17 19 17 18 21 17 14 19 22 20 18 16 15 15 19 26 27 24 23 22 22 22 22 21 21 24 24 17 12 13 11 8 6 4 4
58 56 56 59 62 72 83 81 74 70 68 75 76 75 75 65 52 41 41 48 40 30 31 33 35 36 35 34 28 26 31 35 38 38 38 38 35 33 31 30 31 33 35 37 37 37 35 33 30 27 24 22 21 22 21 20 19 22 25 25 22 18 18 20 18 19 22 18 14 18 21 20 19 17 15 14 18 25 28 26 23 23 23 23 23 23 22 23 25 21 13 13 13 10 8 6 4
60 58 57 64 64 63 72 78 76 76 79 82 75 74 76 65 60 62 60 68 69 55 45 46 50 46 40 41 42 44 48 49 51 44 36 34 30 27 26 25 28 32 34 36 36 36 34 32 30 28 26 24 23 22 19 19 18 21 25 24 22 19 18 20 18 19 23 18 13 17 20 20 19 17 15 14 16 23 29 27 24 24 24 24 24 24 23 22 24 24 17 13 14 12 10 8 6
70 66 62 65 68 64 66 73 76 73 74 77 77 77 75 73 79 81 72 74 82 76 68 68 69 62 55 56 59 60 56 53 53 43 31 29 27 24 23 23 27 33 37 38 38 38 36 33 31 29 27 25 22 21 19 18 17 20 24 24 21 19 19 20 18 19 24 19 13 16 19 20 20 17 15 14 15 22 29 29 25 25 26 25 26 26 24 23 24 26 21 14 13 14 12 10 7
70 66 67 71 76 75 70 73 75 74 72 70 73 75 76 77 76 74 72 73 80 85 86 84 81 72 62 57 57 56 52 51 51 42 30 26 24 23 22 21 25 33 39 41 42 42 40 37 33 29 27 25 23 22 19 17 17 20 23 23 20 19 19 20 18 19 24 20 13 15 18 19 19 17 15 14 15 22 30 31 27 25 26 27 28 28 26 24 25 27 25 17 13 13 14 13 9
70 65 66 74 83 84 81 79 68 65 73 71 70 73 74 73 66 63 71 74 75 79 80 77 74 69 61 53 51 50 47 48 47 42 36 31 28 26 24 22 24 30 37 42 45 46 45 41 36 32 29 26 25 22 19 17 18 21 23 22 20 19 20 20 18 19 24 21 14 14 17 18 19 17 15 14 15 22 30 32 28 26 27 28 29 29 28 27 26 28 28 24 18 14 13 14 12
70 70 68 72 76 76 77 78 70 66 69 66 71 81 81 75 68 68 75 77 75 72 68 67 66 66 66 59 54 51 49 47 45 42 39 37 33 29 27 25 24 27 32 38 45 49 51 48 40 36 32 29 27 22 18 17 19 22 23 22 20 19 20 20 18 20 23 21 15 13 15 17 18 16 15 14 17 24 31 32 29 27 27 29 30 31 31 30 30 30 31 30 26 21 16 14 14
64 69 70 71 71 72 70 70 76 78 70 63 68 78 80 75 69 66 64 69 77 73 63 60 60 62 66 65 59 52 48 45 38 34 33 36 35 30 29 28 25 27 29 33 39 44 51 54 48 42 36 32 29 23 18 17 19 23 22 21 20 19 21 20 18 20 23 20 15 13 13 15 16 15 14 15 19 27 32 32 30 28 28 29 30 32 33 33 34 34 34 34 33 30 25 18 15
67 70 73 68 69 78 77 68 71 77 74 68 65 70 78 78 72 61 51 57 70 69 65 65 61 59 60 60 58 50 44 43 37 32 34 38 37 32 30 29 25 27 28 30 34 35 42 51 54 50 41 35 32 25 19 18 20 23 22 21 20 19 21 20 18 20 21 17 14 13 13 14 15 14 15 17 23 31 33 30 30 29 28 29 31 32 34 35 37 38 38 38 37 36 34 28 21
69 83 75 55 59 71 72 66 65 72 78 72 63 68 76 76 76 70 55 51 54 57 65 64 54 56 58 53 53 52 48 47 44 37 37 40 39 34 32 30 27 28 29 30 31 31 36 45 55 56 48 39 34 26 20 18 21 23 22 21 20 20 22 20 19 20 17 13 12 12 12 13 14 14 17 22 27 33 33 28 29 31 29 29 30 31 33 36 38 40 41 42 42 41 40 38 32
60 87 61 36 58 64 56 67 72 71 74 68 64 72 78 74 74 77 68 54 49 51 56 53 44 53 63 54 49 52 52 52 49 43 41 42 39 37 35 33 32 30 30 30 30 30 34 44 55 59 51 40 32 25 20 19 21 23 22 21 20 21 22 20 19 18 15 12 12 12 13 14 16 18 22 28 32 35 33 28 28 32 31 29 30 31 33 35 37 40 42 44 45 46 45 44 41
44 69 48 44 78 75 59 75 84 78 71 65 66 72 78 80 78 82 78 60 52 53 50 48 43 45 59 61 51 49 52 53 51 47 46 44 38 36 35 33 32 31 30 31 31 30 32 41 52 56 50 40 30 23 20 20 22 22 22 21 20 21 22 20 19 17 14 13 13 14 16 18 20 23 28 33 35 35 33 28 29 33 33 31 30 31 32 34 37 39 43 45 46 47 47 47 46
32 43 43 56 80 78 73 82 83 87 86 78 76 69 68 84 86 79 75 64 60 60 53 49 48 47 58 64 55 50 48 47 47 44 43 43 37 32 31 31 32 30 30 33 34 31 32 38 48 52 48 41 31 22 20 20 22 22 22 22 21 22 22 19 19 17 14 15 17 19 22 23 25 29 33 36 35 35 32 30 32 35 35 33 32 32 32 34 36 39 42 44 47 49 47 47 49
52 47 44 53 63 61 72 82 76 83 89 86 89 78 66 85 89 68 66 67 58 59 60 51 46 45 50 55 57 54 45 42 46 44 40 41 37 31 31 32 32 30 31 36 37 35 34 38 45 47 46 42 31 22 20 21 22 22 22 21 21 22 21 19 19 17 16 18 21 24 27 28 30 33 36 36 34 33 31 30 34 36 36 35 35 34 34 34 36 37 39 41 44 46 42 41 45
57 56 45 49 52 45 64 82 70 74 87 85 91 86 67 78 84 62 60 67 51 48 54 47 43 41 39 48 60 58 46 40 46 46 41 40 37 35 36 35 31 29 33 38 39 38 38 40 44 44 42 38 29 21 21 22 22 22 22 21 21 22 20 19 20 18 18 21 23 28 31 31 33 35 36 36 34 32 31 32 35 36 36 36 36 34 33 33 33 32 34 34 34 35 35 34 39
27 37 35 39 39 29 49 72 61 63 82 81 83 84 69 73 78 54 42 49 44 40 38 39 49 46 38 47 56 55 48 40 42 47 44 40 38 38 39 36 29 28 35 41 41 41 42 44 44 40 36 31 25 21 22 23 22 22 22 21 21 22 19 19 22 20 19 21 23 28 31 32 34 36 36 36 34 33 32 34 36 34 33 35 34 32 30 29 28 26 25 25 25 27 29 31 35
Wind_Speed
8 8 7 7 8 8 7 6 6 7 8 7 10 14 14 15 17 20 21 23 24 23 23 24 22 21 21 21 21 20 20 21 21 20 20 20 18 16 17 16 14 14 15 14 14 15 15 16 16 15 13 14 14 14 13 12 12 12 12 12 13 13 13 13 13 13 13 14 15 15 16 16 17 17 17 18 18 18 18 18 18 19 19 20 21 22 22 23 24 24 25 26 27 28 28 28 28
7 6 6 7 7 6 4 3 6 8 10 10 13 15 14 17 20 20 19 21 22 20 21 21 20 20 19 18 18 17 17 18 17 17 17 16 15 14 14 14 12 12 12 12 12 12 13 11 8 9 9 10 10 10 10 10 11 11 11 12 12 12 11 12 12 12 13 13 14 14 15 15 15 15 16 16 17 17 17 18 19 20 21 22 23 24 24 25 25 26 27 27 28 29 29 29 29
6 6 7 7 4 4 3 5 7 8 11 12 14 16 15 17 18 18 17 17 18 18 19 18 18 18 16 15 14 12 13 14 13 12 12 12 12 11 11 11 10 10 10 10 9 10 11 9 5 6 6 6 7 7 8 9 10 10 10 11 11 10 10 11 11 11 12 12 12 12 13 13 14 15 15 16 17 18 19 20 21 22 23 24 25 25 26 26 27 27 27 28 29 30 30 31 31
6 5 5 4 2 5 6 5 8 8 10 13 15 16 14 15 14 13 13 12 12 13 14 14 15 16 14 13 11 9 10 11 10 10 9 10 10 8 8 9 9 8 9 8 6 6 7 5 4 4 4 4 5 6 8 9 9 9 9 9 9 9 9 9 10 10 10 10 10 11 12 13 14 15 17 18 19 20 21 22 23 24 25 26 26 27 27 28 28 28 29 30 30 31 32 33 33
4 3 2 3 6 8 7 6 9 10 13 13 14 14 13 14 12 11 10 8 8 8 8 9 10 13 14 13 10 9 9 8 8 8 8 8 8 7 7 8 8 7 7 6 5 4 4 3 2 3 4 4 5 6 7 7 7 7 7 7 8 8 8 8 8 9 9 10 11 12 13 15 16 17 18 20 21 21 22 23 24 24 25 26 27 28 28 29 30 30 31 31 32 33 34 35 35
3 2 2 5 8 8 6 7 10 12 14 12 11 12 12 12 10 9 8 7 7 7 8 7 5 8 12 12 10 10 9 8 7 8 7 8 8 7 6 6 7 6 5 4 3 3 3 3 3 4 4 4 4 4 5 5 5 6 6 6 6 6 7 7 8 9 10 11 12 14 15 16 17 19 20 21 22 22 23 23 23 24 25 26 28 29 30 30 31 32 33 34 34 35 35 36 36
4 3 5 7 8 8 7 10 13 15 16 11 9 12 12 11 9 9 7 7 8 7 9 10 6 2 6 6 6 8 8 7 8 7 6 6 7 6 6 7 6 5 3 2 2 2 3 3 4 3 3 3 2 3 3 4 4 4 4 5 5 5 7 8 9 10 11 13 14 15 16 18 19 20 21 21 22 22 23 23 24 25 26 27 29 30 31 32 33 34 35 35 35 36 36 37 37
4 5 9 8 7 9 9 12 15 19 17 7 6 11 11 10 8 8 7 7 8 7 9 11 11 10 8 6 5 4 7 8 8 8 7 5 4 3 3 4 5 3 2 2 2 2 2 3 2 2 1 2 2 2 2 3 3 3 4 4 6 7 8 9 11 12 13 15 16 17 18 19 19 19 20 21 22 22 23 24 25 26 27 29 30 32 33 34 35 36 36 37 37 37 37 37 36
3 6 8 7 7 8 11 14 16 19 15 6 7 10 10 9 7 7 7 7 8 9 8 10 11 11 10 8 10 9 9 8 7 9 8 5 3 2 1 1 3 3 1 1 0 1 1 2 2 2 2 2 2 2 3 3 4 4 5 6 8 9 10 12 13 14 16 17 17 18 18 19 19 20 20 21 22 23 24 25 27 28 29 30 31 32 33 34 36 37 38 38 38 38 37 36 35
5 7 6 6 7 9 13 15 15 16 12 8 9 9 10 8 6 5 6 6 8 9 8 9 10 10 9 8 9 9 8 7 6 7 6 4 3 3 2 3 4 3 3 2 2 2 2 3 2 2 3 4 4 4 4 4 5 6 7 9 10 11 12 14 15 16 16 17 17 18 18 19 20 21 21 22 23 25 26 28 28 29 30 31 32 33 34 35 36 37 38 39 39 38 37 36 36
7 8 6 5 7 10 11 12 13 13 10 9 10 10 9 8 7 6 6 7 7 9 8 8 10 10 8 8 8 7 6 6 6 6 6 5 5 5 5 5 5 4 4 4 4 3 4 4 4 5 5 6 6 6 6 6 7 8 9 10 11 13 13 14 15 16 16 17 18 19 20 21 21 22 23 24 25 26 28 29 30 31 32 33 33 34 35 36 36 37 38 38 38 38 37 37 38
7 7 5 4 9 11 10 11 12 9 7 8 9 9 8 8 8 6 8 8 7 8 9 9 9 9 9 9 8 7 7 8 8 8 7 7 7 6 6 5 5 4 5 5 5 5 6 7 7 7 8 8 7 7 7 8 9 10 11 12 12 13 14 14 16 17 18 19 21 21 21 22 22 23 24 25 26 27 28 29 30 31 32 33 34 35 35 36 36 36 37 37 37 38 38 39 41
6 5 6 7 11 11 10 11 11 8 6 7 7 8 8 10 9 7 7 8 8 8 9 10 9 9 9 8 8 9 9 10 10 9 8 7 6 6 5 5 5 5 6 6 7 8 9 10 10 9 9 8 8 7 8 9 10 11 11 12 13 13 15 16 18 19 20 21 21 21 22 22 23 24 25 26 27 28 29 30 31 32 34 34 35 35 35 36 36 36 36 36 37 38 39 41 42
4 2 3 7 10 11 10 8 9 9 7 6 6 7 9 10 10 9 8 8 9 9 9 10 10 10 10 8 8 9 9 9 9 9 8 7 6 6 5 5 6 7 8 9 10 11 11 11 11 10 9 8 8 9 10 11 11 11 12 13 14 15 17 19 20 20 20 21 21 22 22 23 24 25 26 27 28 29 30 32 33 34 34 35 35 35 35 35 35 35 35 35 36 37 39 41 43
3 4 6 8 10 10 9 7 6 8 8 7 7 6 8 9 10 10 10 10 10 9 10 10 11 13 12 10 9 10 9 8 8 8 8 7 6 6 6 8 9 11 12 12 13 12 12 11 10 10 9 9 10 11 11 11 12 12 13 14 16 18 19 19 19 20 20 21 21 22 23 24 25 26 27 28 30 31 32 33 33 33 33 33 33 33 33 33 33 34 34 34 35 37 38 40 42
2 6 7 6 7 8 7 6 4 6 7 7 6 6 8 9 8 9 10 11 10 10 11 11 13 14 14 13 12 11 9 8 8 8 8 8 7 8 10 11 12 13 14 14 13 13 12 11 10 10 10 10 11 12 12 12 13 14 15 16 18 19 19 19 19 20 20 21 22 23 24 25 26 27 28 30 31 31 32 32 32 32 32 32 31 31 31 31 32 33 34 35 36 37 39 40 42
1 5 5 2 4 6 6 5 5 6 6 6 6 6 7 7 7 9 10 10 10 11 11 12 13 14 13 13 13 12 10 9 9 9 9 10 10 11 13 14 15 15 14 14 13 12 11 10 10 9 10 11 12 12 13 13 14 15 16 17 18 18 18 18 19 20 21 22 23 24 25 26 27 28 29 30 30 31 31 31 31 31 30 30 30 30 31 31 32 33 34 35 37 38 39 41 42
2 5 5 2 3 5 5 6 8 6 5 6 7 6 6 7 8 10 9 9 10 10 11 12 12 12 12 13 12 12 11 11 10 11 11 12 13 14 15 15 15 15 14 13 12 12 10 10 9 10 11 12 13 13 14 14 15 16 17 17 17 18 18 19 20 21 22 24 25 25 26 27 27 28 29 30 30 31 30 30 29 29 28 28 29 30 31 32 33 34 35 36 38 39 40 41 42
3 4 4 2 3 4 6 7 8 7 6 6 7 7 7 9 10 9 10 11 10 10 11 11 11 12 12 12 12 12 12 12 12 12 13 14 15 15 15 15 14 14 13 12 11 10 9 8 9 11 12 13 13 13 14 15 15 16 17 17 17 17 18 20 21 22 24 25 25 25 26 27 28 29 30 30 30 29 28 28 27 27 27 28 29 30 32 33 34 35 37 38 39 41 41 42 43
3 3 3 3 4 5 6 6 6 7 7 6 7 8 8 9 11 10 10 11 10 10 10 10 11 12 12 12 12 14 14 13 13 13 14 15 15 15 14 14 13 13 12 11 10 9 8 9 10 11 12 13 13 14 14 15 15 16 16 17 17 18 20 21 22 23 24 25 26 26 27 28 29 29 29 29 28 28 27 27 27 27 28 29 31 32 33 35 36 37 38 39 41 42 42 43 44
4 3 3 4 5 5 5 6 6 8 7 6 7 9 9 9 11 10 9 10 11 11 10 10 11 12 12 12 14 15 14 14 14 14 14 14 14 14 13 13 12 12 11 10 9 8 8 10 11 12 13 13 13 14 14 14 15 16 17 17 18 19 21 22 23 24 25 26 27 28 28 28 29 29 29 28 28 27 27 27 27 28 29 31 32 34 35 36 37 38 39 40 41 42 43 44 44
4 4 5 5 5 5 5 6 6 7 7 6 8 8 9 9 10 10 9 10 11 11 10 10 11 12 12 13 14 15 15 14 14 14 14 13 13 13 12 12 11 11 10 8 8 8 9 10 11 12 13 13 13 13 13 13 14 16 17 17 19 20 21 22 24 25 27 28 28 28 28 28 29 29 28 28 27 27 27 27 28 29 31 32 34 35 36 37 38 38 39 40 41 42 43 44 44
4 6 7 6 5 5 6 6 6 7 6 7 9 8 9 9 8 9 10 9 10 10 10 11 12 13 14 15 15 15 15 14 14 13 13 12 12 12 12 11 10 9 8 8 8 9 10 11 12 13 13 13 12 12 12 13 14 16 17 18 19 20 21 23 25 26 28 29 29 28 28 28 28 28 28 28 27 27 27 28 29 31 33 34 35 36 36 37 38 39 40 40 41 42 43 43 44
7 7 7 7 6 7 7 7 7 7 7 7 9 8 8 9 8 9 10 9 10 10 10 11 12 13 14 15 15 15 14 13 13 12 12 11 11 11 11 10 9 8 8 8 9 10 11 11 12 13 13 12 11 11 12 13 14 16 17 18 19 21 22 24 25 27 28 29 28 28 28 28 28 28 28 28 27 28 28 29 31 32 34 35 36 36 37 37 38 39 40 40 41 41 42 43 45
8 7 7 7 7 9 8 8 7 7 7 8 9 8 7 9 9 9 9 10 10 10 11 12 12 13 14 15 15 15 14 13 12 11 11 11 11 11 10 10 9 9 9 9 10 10 11 12 12 13 13 12 11 11 12 13 14 15 17 18 20 21 23 24 26 27 28 28 28 28 28 28 28 28 28 28 28 28 29 30 32 33 35 35 36 37 37 38 39 40 40 40 41 40 41 44 44
8 8 7 6 8 10 9 8 7 7 8 8 8 8 8 8 9 9 9 10 11 11 12 12 13 14 14 14 14 14 13 12 12 11 11 11 11 10 10 10 10 9 9 10 10 10 11 12 12 13 13 12 11 11 12 13 14 15 17 18 20 21 22 24 26 27 28 28 28 28 28 28 28 28 29 28 29 29 30 31 33 34 35 36 37 38 38 39 40 40 41 41 41 42 43 44 40
9 8 7 8 8 9 9 8 7 8 8 9 8 7 8 9 9 10 10 10 11 11 13 13 14 15 14 14 13 13 12 12 12 11 11 11 11 11 11 10 10 9 9 9 10 10 11 12 12 12 12 12 12 12 12 13 14 15 17 18 20 21 22 24 26 27 28 27 28 29 28 28 28 29 29 29 30 31 31 32 34 35 36 37 38 39 39 39 40 41 41 42 42 43 45 43 37
10 9 9 10 10 9 9 8 8 9 9 9 8 8 8 9 10 10 10 11 11 12 13 14 14 14 13 13 12 12 11 11 11 11 11 10 10 11 10 10 10 9 9 9 10 11 12 12 12 12 12 12 12 12 12 13 14 15 17 18 20 21 23 24 26 27 28 28 29 29 28 28 29 29 30 31 31 31 32 33 34 36 37 38 38 39 39 40 40 41 42 42 43 44 45 41 36
10 11 12 12 11 10 11 10 10 9 10 10 9 8 8 9 10 11 11 11 11 12 13 14 14 13 12 11 11 11 11 10 10 10 11 10 10 10 10 10 9 8 9 10 10 11 11 12 12 12 12 12 12 12 13 13 14 16 17 19 20 21 23 25 26 27 28 28 29 28 28 28 29 30 31 32 32 32 32 33 35 36 37 38 39 39 39 40 41 41 42 43 44 45 45 39 35
11 13 14 12 11 12 12 12 11 10 10 10 10 9 9 9 10 11 11 11 12 12 13 13 13 12 11 10 10 10 10 10 10 10 10 10 9 9 9 9 8 8 9 9 10 11 11 12 12 12 12 11 12 12 13 14 15 16 17 19 20 22 23 25 26 27 27 28 28 28 28 28 29 31 32 33 33 32 33 34 36 37 38 39 39 39 40 40 41 41 42 43 44 46 45 39 36
12 13 15 14 13 13 12 11 11 11 11 10 11 10 8 9 10 10 11 11 11 12 12 11 11 10 9 9 9 9 9 9 9 9 9 9 9 9 9 9 8 8 9 9 10 10 11 11 12 12 12 11 12 13 14 14 15 17 18 19 21 22 23 24 26 27 27 28 28 28 28 28 29 31 33 33 33 33 33 35 36 38 39 39 39 39 39 40 41 41 42 43 46 46 44 40 38
12 13 14 13 13 12 11 11 11 11 11 11 10 9 9 9 9 10 11 11 11 11 11 10 9 9 8 8 8 8 8 8 8 8 8 9 9 9 9 8 8 8 8 9 9 10 11 11 12 12 12 12 12 13 14 15 16 17 18 20 21 22 24 25 26 27 27 28 28 28 28 28 30 32 33 34 34 34 34 36 37 38 39 39 39 39 39 39 40 41 42 43 46 46 43 40 39
12 14 13 11 12 11 10 10 10 9 10 10 10 9 9 10 9 10 10 10 10 10 9 8 8 7 8 8 8 8 8 8 8 8 8 8 8 8 8 8 8 8 8 9 9 10 11 11 12 12 13 13 13 14 15 15 16 18 19 20 21 23 24 25 26 27 27 28 28 27 28 28 30 32 33 34 35 34 35 36 37 38 39 39 38 38 38 39 40 41 42 43 46 46 43 40 40
12 14 14 11 10 9 8 9 9 8 8 9 10 10 9 10 10 9 9 9 9 9 8 7 6 6 8 8 7 7 8 8 8 8 8 8 8 8 8 8 8 8 9 9 10 10 11 12 13 13 13 14 14 15 16 16 17 18 20 21 22 23 24 25 26 27 27 28 28 27 28 29 31 32 33 34 35 35 35 36 37 39 39 38 38 38 38 38 39 41 42 43 46 47 44 41 40
14 14 12 11 9 8 9 8 8 8 7 8 11 10 9 10 10 9 8 7 7 7 6 6 5 5 7 7 6 7 8 8 8 8 8 8 8 8 8 8 9 9 9 10 11 11 12 13 13 14 14 15 16 16 16 17 18 19 20 21 22 23 24 25 26 27 27 28 27 27 28 29 31 33 33 34 35 35 35 36 37 39 39 38 38 38 38 38 39 40 41 43 46 47 45 42 41
11 12 10 9 10 9 9 8 8 8 8 8 9 9 9 9 9 10 8 6 6 6 5 4 4 6 6 6 7 8 8 8 9 9 9 9 9 9 9 9 10 10 10 11 12 12 13 14 14 15 15 16 16 17 17 18 18 19 20 21 22 23 24 25 26 27 27 28 27 27 28 29 31 33 34 34 35 35 35 36 37 39 39 38 38 37 37 37 38 39 41 43 46 47 44 42 41
9 11 11 9 9 9 8 8 7 7 8 9 9 9 9 8 9 10 8 5 6 7 7 7 7 6 5 5 7 8 8 9 9 10 10 10 10 10 11 11 11 12 12 13 13 13 14 14 15 15 16 17 17 18 18 19 19 19 20 21 22 23 24 25 26 27 27 27 27 27 28 29 32 34 34 34 35 35 35 36 38 39 38 38 38 37 37 37 37 39 40 42 45 46 44 42 40
9 10 11 9 8 9 8 8 7 6 7 9 9 9 8 8 8 9 7 5 6 7 8 9 9 8 6 6 7 8 9 9 10 10 11 11 11 12 12 13 13 13 14 14 14 14 14 14 15 15 16 16 17 18 19 19 19 20 20 21 21 22 24 24 26 27 27 28 27 27 28 29 32 33 33 34 35 35 34 36 38 39 38 38 38 37 37 36 37 39 40 41 43 46 45 43 41
9 7 9 9 8 7 9 8 6 6 7 8 9 9 8 7 8 7 6 5 5 7 8 8 7 7 8 8 9 9 10 10 10 11 11 12 12 13 13 13 14 14 14 14 14 14 14 14 14 15 16 16 17 17 19 19 20 20 20 21 21 22 23 24 26 27 27 27 26 27 28 29 32 33 33 35 35 35 34 36 38 38 38 37 37 37 36 36 36 38 39 41 43 45 46 45 43
11 8 7 9 9 8 9 8 7 7 7 8 9 9 8 6 7 6 5 5 5 6 6 6 6 5 7 8 8 9 9 9 9 10 11 12 12 13 13 14 13 13 14 14 14 14 14 14 14 14 15 16 17 17 18 19 20 20 20 21 21 22 23 24 26 26 26 26 26 26 27 29 32 33 34 35 36 35 34 35 37 38 38 37 37 36 36 35 35 36 38 39 41 43 45 46 46
11 9 7 8 9 8 6 6 7 7 8 9 8 8 7 6 5 5 6 5 5 5 6 5 5 6 7 9 8 7 8 8 8 9 11 12 13 13 13 13 13 13 13 13 14 14 14 14 14 14 15 16 17 18 19 20 20 20 20 20 20 21 23 23 25 25 26 25 25 26 27 29 31 32 34 35 36 36 34 35 37 38 38 37 37 37 36 35 34 35 36 37 39 41 44 46 47
10 10 9 7 6 6 6 6 8 8 8 7 7 7 6 5 4 4 5 5 4 5 5 6 6 7 8 9 8 7 7 7 8 9 11 12 12 13 12 13 13 13 13 14 14 14 14 14 14 14 15 16 17 18 19 20 21 20 20 20 20 20 22 23 24 25 25 25 25 26 28 28 30 32 34 35 36 36 35 35 36 37 38 38 37 37 36 34 33 33 34 36 37 39 42 44 46
11 10 9 6 4 2 4 6 6 8 8 6 7 7 5 4 3 2 2 2 3 4 4 5 6 6 6 7 8 7 6 6 6 7 9 10 11 11 11 12 12 13 13 14 14 14 14 14 14 14 15 16 17 18 20 20 20 20 19 19 19 19 21 22 24 25 25 25 25 26 27 28 30 31 33 35 36 36 35 35 35 37 38 38 38 37 36 35 33 32 33 34 36 38 40 42 44
12 11 9 8 8 5 3 3 3 6 8 6 6 6 3 3 3 4 2 1 3 4 4 4 5 6 6 6 7 7 8 7 5 6 7 8 9 10 11 12 12 13 13 14 14 14 14 14 14 14 15 16 16 17 19 20 20 19 18 18 18 19 20 22 24 24 25 25 24 25 26 27 29 31 33 35 35 36 35 34 35 36 37 37 37 37 36 35 33 32 32 33 35 36 38 41 43
12 10 10 10 10 8 7 5 5 5 5 4 4 4 3 4 3 5 3 2 6 6 5 5 4 6 8 7 7 7 8 8 6 7 7 8 10 10 11 11 12 12 13 13 14 13 13 13 13 14 14 15 16 17 18 19 19 18 17 17 17 18 20 22 24 24 24 25 24 25 26 27 29 31 32 34 35 36 35 33 33 35 36 37 37 36 36 35 34 32 32 32 34 36 37 39 41
13 10 10 12 11 10 10 8 8 9 8 8 7 4 2 4 4 3 3 4 6 4 4 4 2 5 7 7 7 6 6 7 7 8 9 10 10 10 10 10 10 11 11 11 12 12 12 12 12 13 14 14 15 17 18 18 18 17 16 16 17 18 19 22 23 23 24 24 23 24 26 27 28 30 32 33 34 35 35 33 33 34 36 36 36 36 35 35 34 32 32 32 33 34 36 38 39
12 10 10 13 13 12 11 10 11 11 9 11 9 6 5 6 7 5 3 6 5 2 5 5 4 6 6 7 7 7 7 8 10 11 11 12 11 10 10 9 9 9 9 10 10 11 12 12 12 12 13 14 15 16 17 17 17 16 16 16 16 18 19 21 23 23 23 24 23 23 25 27 28 30 31 33 34 34 35 33 32 33 35 36 36 35 34 34 33 32 31 31 31 32 33 35 36
11 10 11 12 12 11 12 11 11 11 10 10 9 8 7 7 9 7 5 8 8 7 10 10 8 8 7 8 9 8 9 11 12 11 10 11 11 11 10 9 8 8 8 9 10 12 12 13 13 13 13 14 15 17 17 17 16 15 15 15 16 17 19 21 23 23 23 24 23 23 24 26 28 30 31 32 33 34 34 33 31 32 33 35 35 35 34 33 32 32 31 31 30 30 31 32 33
10 12 13 12 10 10 11 11 10 10 12 12 10 10 8 7 11 11 8 10 10 11 13 11 12 12 12 11 11 10 11 12 11 10 10 9 9 11 11 10 9 8 8 9 10 12 13 13 14 14 14 15 16 17 17 16 16 15 14 14 15 17 19 21 23 23 23 24 24 23 24 26 28 29 31 32 32 33 33 32 31 30 32 34 35 35 34 33 32 32 32 32 31 30 30 30 31
9 11 12 11 11 12 11 11 10 8 11 13 13 11 9 8 10 10 12 13 11 13 15 13 13 14 14 13 11 11 12 12 12 12 11 10 9 11 11 10 10 9 9 10 11 12 13 14 14 15 15 16 17 18 17 16 15 14 14 14 15 17 19 22 23 23 23 24 24 23 23 25 27 29 30 31 32 32 33 32 30 30 30 32 34 35 35 34 34 32 32 32 33 32 31 30 30
11 12 12 11 11 11 10 11 12 10 10 11 12 11 11 10 7 7 13 15 13 16 17 16 15 15 16 16 14 14 13 12 12 13 12 10 10 11 12 11 11 10 10 11 12 13 14 15 16 16 16 16 17 18 17 16 15 14 14 14 15 17 19 22 23 23 23 23 23 22 23 25 27 28 30 30 31 32 32 32 31 30 29 31 33 34 34 35 34 34 33 32 32 33 32 31 30
11 11 10 10 10 10 8 9 12 12 11 11 11 11 12 13 9 8 13 15 15 16 14 13 17 17 16 16 15 15 14 12 12 13 11 10 10 11 12 12 12 11 11 12 13 14 15 16 16 16 16 17 17 17 17 16 15 14 14 15 16 17 19 22 23 23 23 23 22 22 22 24 26 28 29 30 31 32 31 31 32 31 29 29 31 33 34 35 35 35 34 33 32 32 32 31 30
7 7 7 7 9 10 8 7 12 13 10 10 11 11 12 14 13 11 13 16 18 17 13 14 18 16 15 17 16 15 16 14 13 12 11 11 11 11 13 14 14 14 14 14 13 14 15 17 17 17 17 17 17 18 17 15 14 14 14 15 16 18 20 22 22 22 22 22 21 21 22 24 25 27 28 30 31 32 31 31 32 32 30 29 30 32 33 34 35 35 35 34 33 32 31 30 30
6 5 6 4 6 10 8 8 12 12 10 11 11 11 11 12 14 14 15 20 21 20 18 17 17 16 16 17 16 15 15 14 13 12 12 12 13 14 15 17 18 18 17 16 15 15 16 17 18 18 18 18 18 18 17 15 14 14 14 15 16 18 20 22 22 21 21 21 21 21 22 23 24 26 28 30 31 31 30 30 32 33 32 30 30 31 33 34 34 35 35 35 34 33 32 30 29
7 6 5 3 3 7 8 7 9 8 9 11 12 13 12 11 13 15 19 23 22 20 18 16 16 17 17 16 14 14 15 14 13 13 13 14 15 16 18 19 20 20 19 19 18 17 17 17 18 19 19 19 19 18 17 15 14 13 14 15 16 18 21 22 21 20 20 20 20 21 22 22 23 25 28 31 31 30 30 30 32 34 33 31 30 31 32 33 34 35 35 35 35 34 33 31 28
6 6 6 5 4 4 5 5 8 8 7 9 9 11 13 10 10 15 18 21 21 19 18 18 19 19 18 16 16 16 15 14 14 14 14 15 16 17 19 20 20 20 21 21 20 20 19 18 19 19 19 19 19 18 16 15 14 13 13 15 17 19 21 21 20 19 19 19 20 21 22 22 23 25 28 31 32 31 29 30 32 34 33 32 31 31 32 33 34 35 35 35 36 36 35 32 29
4 5 5 6 5 5 5 5 7 8 8 8 5 7 11 8 10 16 17 18 21 21 19 19 20 20 18 16 16 17 17 14 13 13 14 15 16 18 20 21 20 21 22 22 22 21 20 20 20 20 20 19 18 17 16 14 14 13 14 15 17 19 21 20 19 19 19 19 19 21 22 23 23 25 27 31 32 31 30 30 32 35 34 32 31 31 32 33 34 35 36 36 36 36 36 33 30
4 5 4 4 5 5 4 4 5 6 6 8 5 7 12 10 11 16 18 17 20 22 21 20 19 19 18 16 14 14 15 13 12 12 13 15 16 18 19 20 21 22 24 23 22 21 21 20 19 19 19 19 18 17 16 14 14 13 14 16 18 19 20 19 18 18 18 18 19 20 22 23 24 25 26 29 32 31 30 30 33 35 34 32 31 32 32 33 34 35 36 36 36 36 35 33 31
Wind_Direction
310 309 312 317 323 323 322 309 293 319 320 307 306 301 297 302 305 297 291 287 284 283 280 276 275 270 266 264 261 256 252 249 250 254 255 256 257 256 253 252 252 249 252 254 257 260 263 266 256 245 245 248 255 263 269 274 277 281 284 288 291 293 294 296 297 297 295 293 293 293 294 294 294 294 294 294 295 297 298 299 300 299 298 298 297 296 296 295 294 293 292 291 290 289 288 287 286
318 317 332 330 326 322 328 338 327 332 321 310 319 315 308 309 305 301 299 292 289 287 282 278 276 270 267 265 258 252 249 247 247 251 254 253 251 251 251 246 240 242 247 251 256 262 268 269 250 236 243 250 258 267 274 281 285 290 295 297 300 302 303 303 301 299 297 295 295 294 294 295 296 297 299 302 304 306 306 306 305 303 302 300 299 298 296 295 294 293 292 291 291 290 289 288 287
340 344 343 327 310 327 9 12 338 321 304 307 329 326 314 316 310 306 305 296 290 286 282 277 272 267 264 262 256 253 247 241 239 244 247 243 245 246 243 238 232 238 242 248 256 261 266 271 255 237 244 256 265 276 284 288 292 298 301 303 304 305 305 303 301 298 296 295 296 297 300 303 306 308 310 311 311 310 310 308 306 304 303 301 300 299 298 297 295 294 293 292 292 291 290 289 288
348 349 339 326 360 22 20 353 325 315 303 308 332 335 323 322 321 321 321 309 300 294 285 276 267 259 254 254 251 249 242 234 233 237 235 232 235 228 228 236 234 238 242 252 268 267 265 268 254 240 253 269 284 291 292 294 298 302 302 304 306 305 304 301 300 299 301 305 310 315 317 318 318 317 315 313 312 310 310 308 307 306 305 304 303 302 300 299 298 296 295 293 292 291 289 288 287
342 346 343 22 42 29 9 333 323 325 318 316 331 341 337 332 331 339 343 336 331 329 316 292 272 255 243 243 241 233 233 238 235 227 220 217 219 222 233 241 236 239 247 260 279 286 279 278 284 283 283 294 303 301 298 299 300 304 307 307 307 307 306 305 309 314 320 325 327 327 325 322 319 316 313 312 311 310 310 309 308 307 306 305 304 303 301 300 298 296 295 293 291 290 288 287 285
355 346 352 28 35 22 351 326 328 331 324 318 333 343 345 345 345 352 357 354 353 359 360 347 300 251 231 232 235 231 236 237 221 210 211 211 220 234 231 223 224 231 245 264 278 293 300 313 330 325 316 311 307 304 301 301 305 310 311 312 315 317 320 325 330 333 333 331 328 324 321 318 317 315 314 313 313 312 311 310 309 307 306 305 303 302 300 299 297 296 294 292 291 289 287 286 284
11 4 29 29 23 4 332 322 322 327 322 306 332 346 347 351 351 359 5 6 10 17 21 25 35 108 188 207 228 231 228 215 201 199 206 205 216 227 219 215 214 216 234 264 279 297 315 338 349 342 328 320 318 314 309 309 317 322 325 330 334 339 344 344 341 337 332 328 325 322 321 319 319 317 316 315 314 314 312 311 310 308 306 305 303 301 300 299 297 296 294 292 290 289 287 286 284
28 25 35 33 19 347 316 323 325 331 329 307 343 351 353 356 356 13 19 18 22 26 31 38 59 87 105 102 81 138 180 186 190 185 181 172 171 187 212 210 179 174 230 272 293 312 335 360 11 11 354 345 349 334 333 343 352 355 359 1 359 357 353 346 339 334 330 328 327 325 324 322 320 319 317 316 316 315 313 312 310 308 306 305 303 302 301 300 298 297 295 293 291 289 287 285 284
53 49 39 27 14 327 303 319 330 339 342 345 4 3 10 12 8 17 21 23 25 29 43 54 65 79 84 83 75 94 131 152 165 166 169 168 144 126 89 114 123 127 161 235 315 10 30 49 51 38 27 28 29 26 30 30 29 26 19 13 5 358 349 343 339 335 332 330 329 327 325 324 322 321 320 319 317 315 314 312 311 309 308 306 305 303 303 301 300 298 296 294 292 290 288 285 284
50 57 43 16 352 306 302 315 326 338 346 357 0 11 20 21 25 12 11 19 28 41 55 64 67 70 74 83 85 93 106 114 127 136 148 148 120 113 104 100 104 116 125 120 106 93 80 78 70 54 53 59 62 58 55 49 40 29 19 10 0 353 347 342 338 335 333 331 330 329 328 327 326 324 322 320 318 317 316 315 313 312 310 309 307 306 305 303 302 300 298 295 293 291 288 285 285
32 37 26 1 326 306 315 328 333 336 351 8 357 8 19 29 39 23 33 39 39 56 62 59 60 63 69 81 92 103 99 99 114 116 123 123 116 113 108 105 105 108 107 101 97 90 81 79 80 75 73 75 73 67 58 46 34 23 13 4 356 350 345 341 339 337 336 335 335 334 333 330 328 325 323 321 320 319 318 317 316 314 313 311 309 306 305 303 302 301 299 296 293 291 288 286 286
24 21 3 322 298 303 324 341 342 334 355 19 9 14 23 38 44 33 51 55 44 53 63 59 56 57 61 76 88 99 95 91 103 108 109 108 107 107 105 103 103 99 93 91 89 87 87 88 89 87 84 81 73 63 50 36 24 16 7 359 353 348 346 345 344 343 343 342 339 337 334 331 327 325 323 322 321 320 319 317 316 314 313 311 309 306 304 303 302 302 301 298 294 291 289 288 288
5 6 339 303 288 301 325 339 349 348 351 12 22 30 33 41 47 44 48 52 47 45 51 51 49 55 57 68 82 89 92 91 96 101 99 99 99 99 104 106 101 94 89 89 91 92 92 92 92 89 84 77 67 53 37 25 16 9 2 357 354 353 352 352 351 349 346 343 339 335 332 329 326 324 323 321 320 318 317 316 315 314 313 311 309 307 306 305 304 304 303 301 297 294 292 291 290
338 343 306 307 307 315 324 336 2 11 1 9 28 39 46 47 47 47 44 46 49 43 43 45 45 54 52 54 75 82 88 90 92 96 93 92 92 91 99 103 97 92 92 91 92 93 92 90 88 84 76 65 51 37 25 18 11 6 3 1 0 359 358 356 353 349 344 340 336 333 330 328 326 324 322 320 319 319 318 317 316 315 313 312 311 309 308 307 306 305 304 302 299 297 295 293 292
308 284 268 301 323 328 327 323 352 16 8 17 37 41 49 51 51 55 53 50 52 47 47 49 46 49 48 49 67 73 80 87 89 94 91 85 87 95 97 95 93 93 94 93 93 91 89 86 81 74 62 49 36 26 20 15 11 10 8 6 5 2 359 355 350 346 342 338 335 333 330 328 327 325 324 323 322 320 319 317 316 315 313 313 312 311 310 309 308 307 306 304 302 300 298 296 295
291 299 292 298 321 335 351 340 355 29 17 24 42 44 51 49 49 58 54 49 53 52 52 53 50 50 51 58 67 67 71 77 82 89 90 89 92 96 95 94 95 95 96 95 93 89 85 80 72 62 49 38 29 23 19 17 16 14 11 9 6 2 357 352 348 344 341 338 335 334 332 331 331 329 327 325 322 320 319 318 317 316 316 316 315 315 314 312 311 310 309 307 305 304 302 301 300
312 326 331 332 340 347 8 17 33 38 30 39 45 49 57 48 48 57 52 49 55 57 60 58 54 54 56 62 65 64 65 68 76 86 91 94 95 94 94 96 96 95 95 93 89 85 80 74 65 53 41 32 27 25 23 21 19 15 12 9 5 0 355 350 348 345 341 339 338 338 336 334 332 330 327 325 324 323 322 321 321 321 321 321 320 319 317 316 314 312 311 309 307 306 304 303 301
12 346 348 15 13 11 18 37 49 39 41 51 50 52 57 58 56 56 55 59 62 63 65 65 60 58 59 63 67 69 68 71 79 87 91 93 94 95 96 96 95 93 91 89 85 82 78 70 59 45 35 31 30 29 27 23 19 16 12 8 3 358 353 350 349 346 344 343 341 339 336 334 333 332 331 330 328 326 325 324 324 324 324 324 322 321 319 318 316 314 313 311 309 307 306 305 303
13 354 3 51 47 31 25 47 64 53 50 51 53 55 55 64 61 55 59 63 63 63 63 66 65 61 62 67 73 76 75 77 83 89 92 94 95 95 95 94 93 91 89 86 83 80 74 63 48 38 34 34 34 32 29 25 21 16 12 7 2 357 354 353 351 347 345 343 340 337 336 336 336 336 334 332 329 327 327 327 328 328 328 326 325 323 322 321 319 318 316 314 312 310 308 307 305
41 20 9 56 64 49 38 49 64 63 59 49 56 61 60 69 68 58 57 61 61 58 58 61 65 65 68 74 78 80 79 81 85 90 92 93 94 93 91 90 89 87 85 82 79 73 62 48 39 35 35 37 36 33 30 25 20 15 11 7 1 357 355 353 349 347 345 341 339 339 339 339 338 337 334 331 329 330 331 331 332 331 330 329 328 327 326 324 322 320 318 315 313 312 310 309 307
67 81 45 49 61 65 60 55 60 66 65 55 57 61 63 70 72 64 53 56 55 52 54 58 65 69 73 76 78 79 81 85 87 89 89 89 90 89 87 85 82 81 80 77 71 60 46 37 34 33 35 37 35 33 29 23 18 14 11 6 0 357 354 350 348 346 344 343 343 342 340 339 338 336 334 333 333 334 335 335 334 333 333 332 331 330 328 326 323 321 318 316 315 314 312 311 310
50 82 71 63 69 76 78 74 72 70 68 69 69 68 69 70 73 70 55 46 48 52 57 62 71 77 79 80 80 82 85 88 88 87 86 86 85 84 82 81 79 77 75 69 57 44 36 31 31 32 34 34 31 28 24 19 16 14 10 4 359 356 352 349 348 346 345 346 345 342 339 338 337 336 335 337 338 338 338 337 337 337 336 336 334 332 329 326 324 322 320 318 317 315 314 313 312
60 75 73 77 85 86 84 81 78 76 74 73 74 73 74 74 69 66 60 50 49 56 63 71 79 84 86 87 85 87 88 88 87 86 85 84 83 81 80 78 76 73 66 56 45 36 29 27 29 31 31 28 25 22 17 14 14 12 6 1 357 353 351 350 348 346 347 346 343 341 340 338 337 338 339 340 340 340 339 340 340 340 339 337 335 333 330 327 325 323 321 320 319 318 317 316 315
72 73 75 86 91 89 86 84 81 81 80 76 78 78 74 75 68 62 64 62 61 64 72 80 85 89 92 93 93 91 89 87 86 84 83 83 82 79 77 74 70 64 55 47 40 33 27 26 27 28 27 23 19 15 11 10 10 8 2 358 355 352 350 349 347 348 347 345 342 341 340 339 339 341 343 342 342 342 342 342 343 342 341 338 336 334 331 329 327 325 324 323 322 321 320 319 319
79 79 82 88 91 92 89 88 86 82 80 78 82 86 81 76 72 68 67 69 73 79 84 87 91 94 96 97 97 96 93 91 88 86 84 82 80 76 72 69 63 55 46 40 35 30 25 24 24 24 22 18 14 9 4 5 6 2 358 355 352 351 349 347 348 348 345 344 343 342 341 341 343 344 345 344 344 344 344 344 345 344 342 339 337 335 333 331 329 327 326 325 324 324 324 325 323
80 82 86 86 86 90 92 89 89 88 85 79 78 85 84 80 78 76 75 77 82 88 91 96 99 99 98 97 97 97 96 94 91 88 83 79 74 70 65 61 57 49 40 33 29 26 23 21 20 20 18 14 9 3 359 360 0 357 354 352 350 348 346 347 348 346 344 344 343 343 343 344 346 347 346 346 345 345 346 347 347 345 342 340 338 336 335 333 331 329 328 328 329 330 330 329 325
81 81 83 84 82 87 94 94 92 89 85 79 73 72 76 81 84 82 83 86 90 96 98 101 103 101 98 97 95 93 92 91 90 86 80 74 68 62 57 54 50 44 35 28 23 21 20 17 17 16 14 10 4 356 353 354 355 352 349 348 347 346 345 347 347 344 344 344 345 345 345 346 349 349 348 348 347 347 348 348 347 345 343 341 340 338 336 334 333 333 332 333 334 334 334 333 327
88 87 80 79 80 80 85 88 86 84 82 79 72 69 73 81 86 86 88 92 95 99 101 102 102 100 98 96 93 90 88 87 85 82 77 69 61 57 53 49 46 40 31 24 19 17 16 13 12 11 9 5 358 350 348 349 349 347 346 345 344 343 345 347 345 344 345 346 346 346 346 349 351 351 351 350 350 350 350 350 348 346 344 343 341 339 338 336 336 336 337 337 338 337 337 335 329
92 91 81 76 77 74 74 76 77 78 80 82 78 72 74 80 86 89 91 93 97 99 101 102 100 98 96 94 92 91 89 85 79 73 71 65 56 51 50 46 41 35 27 21 17 13 11 9 7 5 3 359 352 345 343 344 344 343 343 342 341 342 345 346 343 344 346 347 346 347 348 351 353 355 354 353 352 352 352 351 348 347 346 344 342 340 339 339 338 340 340 340 341 341 340 338 332
90 89 83 76 71 69 71 76 79 78 78 83 84 78 79 85 88 91 93 96 99 100 100 99 98 98 96 95 94 91 87 80 72 64 60 58 51 45 45 44 37 30 25 19 14 10 7 4 1 358 357 353 347 341 340 342 340 339 340 339 340 342 345 344 343 345 347 347 347 348 350 353 356 357 356 355 354 353 353 351 350 348 347 345 343 342 341 340 340 342 343 344 344 344 344 342 337
89 84 81 76 70 66 68 74 78 78 78 80 82 82 84 86 87 93 99 102 101 100 99 98 97 97 95 94 91 86 80 71 63 57 49 47 44 39 40 40 35 27 21 17 10 6 3 359 356 353 351 348 343 339 339 339 336 336 337 337 339 341 343 342 343 346 347 347 348 349 351 354 357 357 357 356 355 355 354 353 351 350 348 346 345 344 343 341 342 344 346 347 348 348 347 345 341
84 77 73 73 71 65 65 69 73 79 84 83 83 88 89 88 91 97 102 103 104 104 102 100 98 96 95 93 87 79 69 59 51 46 39 37 38 37 37 38 33 24 17 13 7 3 359 355 352 350 347 344 341 338 337 336 334 334 334 336 338 339 340 341 344 347 347 347 349 350 352 355 357 357 357 357 357 356 355 354 353 351 349 347 346 345 344 343 344 347 350 350 350 351 350 348 346
76 75 72 69 68 64 61 65 70 77 85 90 93 95 94 95 99 101 105 108 107 105 102 97 96 96 92 85 80 72 60 47 38 33 29 31 36 38 37 35 30 23 15 8 4 360 355 351 349 347 345 342 339 337 335 334 333 332 332 335 336 337 339 342 344 346 347 347 349 351 352 355 357 357 357 357 358 357 356 356 354 352 350 348 347 347 346 345 347 351 352 352 352 354 353 351 350
71 68 63 60 62 62 60 62 67 72 80 88 92 93 94 98 101 99 102 105 101 98 96 92 92 94 90 84 73 63 53 39 28 25 28 30 32 37 38 34 28 20 12 5 360 356 353 349 347 345 343 340 337 334 333 331 330 330 332 334 334 335 338 341 344 346 346 347 350 351 352 354 356 356 356 356 357 357 357 357 355 353 351 349 349 348 347 347 350 353 354 354 355 357 356 354 354
70 68 63 60 61 60 61 60 62 71 73 75 83 91 95 97 101 99 91 88 89 88 85 86 90 86 85 86 76 60 46 35 28 26 29 30 28 30 32 28 22 16 7 1 356 353 350 347 345 342 339 336 333 331 329 328 329 330 331 331 331 333 337 340 344 346 346 347 350 352 353 354 355 356 356 356 357 357 357 357 356 354 352 351 351 350 349 349 352 355 356 357 358 360 359 357 358
71 78 77 64 58 54 58 59 59 76 79 73 82 91 92 94 98 96 88 77 71 66 56 53 60 66 67 63 57 53 46 36 29 27 26 26 22 17 20 19 13 9 2 357 353 349 347 345 342 339 335 332 330 329 327 326 327 327 327 328 329 331 335 339 344 345 346 347 349 352 354 354 355 356 356 357 357 358 358 358 357 356 354 353 352 351 350 351 353 356 358 359 1 3 2 1 1
59 78 76 63 63 56 57 59 58 80 91 87 91 91 90 91 90 89 86 70 54 47 33 20 20 33 54 62 54 48 46 40 31 27 23 21 17 11 12 12 6 2 358 354 350 347 346 344 341 338 334 331 329 328 326 325 324 324 325 327 328 330 334 339 343 345 345 347 350 353 354 354 356 357 358 358 358 358 358 358 358 357 356 355 354 353 352 352 354 357 0 0 2 4 5 4 4
45 67 69 62 65 61 62 61 61 79 91 93 96 94 91 90 89 90 89 69 48 40 28 20 14 7 13 43 54 46 38 36 29 24 21 18 16 12 10 10 7 2 357 353 349 347 345 344 341 337 333 330 328 327 325 323 323 324 325 325 327 330 333 339 343 344 345 347 350 353 354 355 357 359 359 359 360 360 359 360 360 359 358 356 355 354 353 354 355 358 1 1 2 4 6 7 7
60 61 62 69 76 73 69 67 76 86 85 95 104 103 95 89 88 88 88 75 56 47 38 36 32 11 8 26 37 34 30 28 24 18 17 15 12 10 8 7 5 0 355 351 347 345 344 342 340 335 331 328 328 327 325 323 323 325 325 325 327 330 333 339 343 344 344 346 349 353 355 357 359 0 1 1 1 1 1 1 1 0 360 358 357 356 355 355 356 359 2 2 2 4 7 8 9
73 64 58 74 81 72 68 75 89 95 95 102 107 105 98 88 85 85 82 71 58 55 50 49 48 27 28 42 38 29 27 24 19 13 10 8 5 3 0 358 358 353 349 345 342 341 340 339 336 331 327 326 326 326 325 324 324 325 325 326 328 331 334 339 342 342 343 345 349 353 356 358 0 1 1 1 2 2 3 3 2 2 1 0 359 358 357 356 357 359 2 3 3 4 7 8 9
76 75 67 73 80 72 64 72 76 79 88 95 97 96 95 88 73 63 59 51 44 48 42 35 37 24 24 37 37 26 24 19 10 4 1 359 357 354 351 350 349 346 342 340 339 338 337 336 332 327 324 323 324 325 324 324 325 326 326 328 330 331 333 337 340 341 342 345 349 353 357 359 1 2 1 2 3 3 4 4 3 3 2 2 1 359 359 358 358 360 3 4 4 5 8 10 10
70 74 68 67 89 97 80 76 83 82 78 86 101 100 93 91 70 47 43 32 17 24 21 8 13 17 14 14 15 12 8 6 1 358 356 354 352 348 348 350 349 346 343 341 339 337 336 335 331 326 323 321 322 322 323 325 327 328 327 329 330 330 332 336 340 341 342 345 350 354 358 360 1 2 1 3 4 4 4 5 5 4 4 3 2 1 1 359 359 0 2 5 5 5 9 12 13
51 58 60 53 58 81 82 82 93 101 98 97 108 110 103 106 95 32 20 4 343 357 358 351 357 3 3 355 348 346 343 346 354 358 358 357 355 357 0 1 357 354 351 347 344 342 340 338 333 327 323 321 320 320 322 325 327 328 327 329 329 330 332 336 340 341 342 346 350 354 358 359 1 1 2 3 5 5 5 5 6 5 5 4 3 2 2 1 1 1 2 5 7 6 9 13 14
52 48 38 31 35 39 82 83 65 94 107 100 101 118 121 91 40 335 314 268 297 310 311 316 333 341 345 340 331 328 323 325 347 8 15 14 13 16 15 10 5 2 358 355 352 349 346 342 336 330 325 322 320 319 322 326 329 328 327 329 330 331 333 337 340 341 343 347 350 354 357 359 1 1 2 3 4 5 5 5 6 7 6 6 5 4 3 3 2 1 2 5 7 8 8 12 15
52 42 32 40 50 53 64 69 60 73 85 76 96 132 117 66 17 312 275 276 304 298 286 283 318 344 337 327 326 324 317 323 360 22 27 32 29 24 18 11 9 7 2 359 356 352 348 342 336 329 324 322 320 320 324 329 331 330 328 330 331 332 334 338 341 340 342 347 350 352 356 358 1 1 2 3 4 5 5 5 6 7 8 8 6 6 4 4 4 3 2 4 7 8 9 11 14
44 43 56 67 71 64 57 58 62 59 51 52 69 99 71 40 29 344 311 330 316 288 284 284 328 358 333 324 339 344 326 334 15 27 22 29 29 21 15 11 11 10 5 360 355 349 344 338 331 326 322 320 321 323 328 331 332 331 330 332 332 333 335 339 341 340 342 347 349 351 355 358 0 1 2 3 4 5 5 5 6 7 9 9 8 8 7 6 6 5 3 4 7 8 9 11 13
42 49 64 66 65 60 57 62 65 61 59 60 61 56 41 33 38 38 14 8 357 327 345 354 23 16 348 344 353 352 345 355 14 20 15 17 19 13 8 8 10 9 3 357 351 345 340 333 326 322 320 320 323 327 331 334 334 333 333 333 334 334 337 340 340 340 342 348 350 351 354 357 360 1 1 3 4 5 6 5 6 7 9 10 10 10 10 9 8 7 5 5 6 8 10 11 12
35 46 56 58 55 44 44 57 68 67 59 58 54 45 46 45 34 26 19 13 2 5 18 17 9 357 351 355 352 348 356 8 15 15 11 11 9 4 360 1 3 3 358 351 347 344 339 333 326 321 321 323 327 332 336 339 338 336 335 335 334 335 338 341 340 339 342 348 350 350 353 356 359 360 0 2 4 5 6 6 6 7 9 10 11 12 13 13 12 10 9 7 7 8 10 11 13
29 36 45 48 43 35 35 46 63 60 41 38 40 36 41 45 28 19 8 354 354 16 22 9 357 350 347 351 351 353 0 8 10 7 6 7 5 360 357 358 359 356 352 346 343 342 339 335 329 325 326 328 332 337 341 343 341 338 337 336 336 337 340 342 341 340 343 349 351 350 354 356 357 359 360 2 4 6 7 7 6 6 8 10 11 13 14 15 16 14 12 11 10 10 10 10 12
36 37 40 33 29 32 28 31 46 42 26 28 29 22 19 21 21 18 6 354 1 20 15 6 4 357 351 352 359 6 6 7 3 359 4 5 3 2 358 358 1 356 351 346 341 341 338 337 334 330 330 332 336 341 343 346 344 341 340 338 338 340 343 343 341 340 344 349 351 351 354 355 356 358 359 1 4 6 7 7 6 6 7 9 10 12 14 16 17 17 15 13 13 12 11 10 11
23 25 27 21 17 17 13 15 24 24 24 25 18 10 6 8 20 24 11 5 7 12 9 5 2 356 355 356 358 360 358 360 1 359 4 4 2 4 358 355 1 358 352 350 346 342 340 338 337 334 333 335 339 342 345 348 347 344 343 340 341 344 345 344 342 342 345 350 352 353 355 356 356 358 359 2 4 6 8 8 7 6 6 8 9 10 12 14 16 18 17 15 14 13 13 11 11
18 20 9 8 5 5 14 12 10 17 23 14 7 10 11 11 17 8 3 7 5 3 6 2 355 355 356 355 353 349 345 350 360 1 3 2 2 5 359 357 2 2 358 357 352 347 343 341 338 336 336 337 341 344 347 350 350 348 345 343 344 346 346 345 343 343 348 352 355 357 359 357 358 359 0 3 5 6 8 9 9 7 5 6 7 8 9 11 14 16 17 17 15 13 12 12 11
28 26 354 5 18 14 20 10 9 18 14 4 7 8 7 8 4 351 350 1 359 352 353 353 352 353 350 349 351 348 344 345 353 1 6 7 9 11 8 6 5 5 4 2 355 349 346 344 341 339 339 341 344 347 350 352 352 349 347 346 347 348 348 347 345 345 351 356 359 2 3 1 1 3 4 5 6 6 8 9 9 8 6 5 5 6 7 8 9 12 14 16 16 15 12 10 11
20 9 343 1 17 11 15 14 18 16 354 359 10 1 359 359 356 352 348 353 354 347 346 347 346 348 345 341 342 346 349 347 352 13 21 14 15 18 17 13 7 5 6 4 358 352 349 346 344 343 343 344 347 350 352 352 352 350 348 348 349 350 350 348 345 349 356 0 4 7 6 5 5 7 7 7 7 7 8 9 9 9 8 6 4 4 5 5 6 7 9 11 13 14 13 10 9
14 1 355 5 356 3 19 17 14 7 343 353 358 351 358 356 349 351 344 344 347 343 346 350 350 355 350 337 338 347 353 356 5 24 30 20 17 17 17 16 9 3 4 6 3 357 352 348 347 346 345 346 349 351 352 352 351 351 350 351 352 352 352 349 346 353 1 5 8 10 9 9 10 11 11 9 8 8 9 9 9 10 10 8 6 4 3 3 3 4 5 6 8 10 11 10 9
5 3 7 11 356 359 25 13 7 13 356 357 358 346 357 358 339 342 341 340 343 343 349 355 355 359 355 346 353 356 355 7 18 23 27 22 14 10 14 16 8 2 4 8 5 0 356 351 349 348 346 347 349 350 351 351 350 351 352 353 354 354 352 349 349 356 5 8 10 13 12 11 12 12 12 11 10 10 10 9 9 10 10 10 8 6 4 3 2 2 2 3 3 5 6 8 8
356 358 1 8 4 358 13 360 6 20 354 350 6 335 343 344 322 335 344 344 345 344 347 352 351 352 353 354 3 360 352 4 23 23 21 18 7 5 12 13 5 3 7 10 7 1 358 354 351 350 348 348 349 349 350 351 349 350 354 355 355 354 351 349 351 359 6 9 11 14 14 13 12 12 12 12 11 11 10 10 10 10 11 10 10 8 6 4 3 1 1 1 2 2 3 5 7
349 350 354 8 357 348 10 356 1 24 348 334 348 331 335 332 319 338 348 346 346 343 343 353 356 351 353 359 7 1 346 351 16 23 14 8 2 3 10 8 3 7 11 11 8 3 359 356 353 352 351 350 350 350 350 351 349 349 353 356 355 353 350 349 352 0 6 8 11 13 13 12 11 11 11 12 12 11 11 10 11 11 11 11 10 10 8 5 3 1 1 0 1 1 2 3 5